Home   Weather   Königswinter   Past weeks

Flag for Germany Past Weather in Königswinter, North Rhine-Westphalia, Germany — Yesterday and Last 2 Weeks

Now
45 °F

Clear.


Feels Like: 41 °F
Forecast: 34 / 48 °F
Wind: 6 mph from Southeast

Location: Koeln / Bonn

Current Time: Dec 9, 2016 at 10:43:09 pm

Latest Report: Dec 9, 2016 at 10:20 pm


Visibility: 10 mi

Pressure: 30.36 "Hg

Humidity: 81%

Dew Point: 39 °F

Location of KönigswinterLocation

Past Weather in Königswinter — Graph

°F

Königswinter Temperature Yesterday

Maximum temperature yesterday: 45 °F (at 1:50 pm)
Minimum temperature yesterday: 36 °F (at 4:20 am)
Average temperature yesterday: 40 °F

High & Low Weather Summary for the Past Weeks

 TemperatureHumidityPressure
High52 °F (Nov 25, 1:50 pm)100% (Nov 24, 10:20 pm)30.57 "Hg (Nov 24, 10:20 pm)
Low18 °F (Nov 30, 6:50 am)44% (Nov 25, 3:20 pm)30.07 "Hg (Nov 26, 12:50 pm)
Average36 °F82%30.33 "Hg
* Reported Nov 24 9:20 pm — Dec 9 9:20 pm, Königswinter, Weather by CustomWeather, © 2016

Note: Actual official high and low records may vary slightly from our data, if they occured in-between our weather recording intervals... More about our weather records

Advertising

Königswinter Weather History for the Previous 24 Hours

Scroll right to see more
 ConditionsComfort  
Time TempWeatherWind HumidityBarometerVisibility
9:20 pm
Fri, Dec 9
45 °FClear.6 mph81%30.36 "Hg10 mi
8:50 pm46 °FPassing clouds.6 mph76%30.36 "HgN/A
8:20 pm46 °FPassing clouds.7 mph76%30.36 "HgN/A
7:50 pm48 °FPassing clouds.6 mph76%30.36 "HgN/A
7:20 pm48 °FPassing clouds.6 mph76%30.36 "HgN/A
6:50 pm48 °FPassing clouds.7 mph76%30.36 "HgN/A
6:20 pm48 °FPassing clouds.7 mph76%30.36 "HgN/A
5:50 pm48 °FPassing clouds.7 mph76%30.39 "HgN/A
5:20 pm48 °FPassing clouds.7 mph82%30.39 "HgN/A
4:50 pm48 °FPassing clouds.6 mph82%30.39 "HgN/A
4:20 pm50 °FBroken clouds.5 mph76%30.39 "HgN/A
3:50 pm50 °FBroken clouds.3 mph76%30.39 "HgN/A
3:20 pm50 °FPartly sunny.6 mph76%30.36 "HgN/A
2:50 pm50 °FPartly sunny.7 mph76%30.36 "HgN/A
2:20 pm50 °FPartly sunny.5 mph76%30.39 "HgN/A
1:50 pm48 °FPartly sunny.7 mph82%30.39 "HgN/A
1:20 pm48 °FPartly sunny.5 mph82%30.39 "HgN/A
12:50 pm48 °FPartly sunny.5 mph82%30.39 "HgN/A
12:20 pm46 °FBroken clouds.5 mph82%30.39 "HgN/A
11:50 am46 °FBroken clouds.5 mph82%30.39 "HgN/A
11:20 am46 °FOvercast.6 mph82%30.39 "HgN/A
10:50 am46 °FOvercast.6 mph82%30.42 "HgN/A
10:20 am46 °FOvercast.5 mph82%30.42 "HgN/A
9:50 am45 °FOvercast.3 mph81%30.39 "HgN/A
9:20 am45 °FOvercast.2 mph81%30.39 "HgN/A
8:50 am45 °FOvercast.3 mph81%30.39 "HgN/A
8:20 am45 °FPassing clouds.7 mph81%30.39 "HgN/A
7:50 am45 °FPassing clouds.6 mph81%30.39 "HgN/A
7:20 am45 °FOvercast.6 mph81%30.39 "HgN/A
6:50 am45 °FOvercast.5 mph81%30.39 "HgN/A
6:20 am45 °FOvercast.6 mph76%30.39 "HgN/A
5:20 am43 °FOvercast.3 mph81%30.39 "HgN/A
4:50 am43 °FOvercast.3 mph81%30.39 "HgN/A
4:20 am43 °FOvercast.5 mph76%30.39 "HgN/A
3:50 am43 °FOvercast.5 mph76%30.39 "HgN/A
3:20 am43 °FOvercast.7 mph76%30.39 "HgN/A
2:50 am43 °FOvercast.8 mph81%30.39 "HgN/A
2:20 am41 °FOvercast.7 mph81%30.39 "HgN/A
1:50 am41 °FOvercast.6 mph81%30.39 "HgN/A
1:20 am41 °FLight rain. Overcast.5 mph81%30.39 "HgN/A
12:50 am41 °FDrizzle. Mostly cloudy.3 mph76%30.39 "HgN/A
12:20 am41 °FPassing clouds.6 mph76%30.39 "HgN/A
11:50 pm
Thu, Dec 8
41 °FPartly cloudy.3 mph76%30.39 "HgN/A
11:20 pm43 °FPassing clouds.3 mph71%30.39 "HgN/A
10:50 pm41 °FPartly cloudy.5 mph76%30.39 "HgN/A
10:20 pm41 °FPassing clouds.7 mph76%30.39 "HgN/A
Weather by CustomWeather, © 2016

See weather overviewHow to use our weather pages